Location: Utrecht
(52.0907°N, 5.1214°E)
Time: 00:34:01
(UTC+02:00)

DIWATA 2B (PO-101) - Pass Details

Date: 09 July 2022
Orbit: 583 x 599 km, 98.0° (Epoch: 16 August)

Event Time Altitude Azimuth Distance (km) Brightness Sun altitude
Exits shadow 03:10:19 11° 156° (SSE) 1,845 ? -13.2°
Maximum altitude 03:14:17 73° 73° (ENE) 633 ? -13.0°
Drops below altitude 10° 03:18:30 10° 349° (N) 1,950 ? -12.8°
Sets 03:20:41 0° 348° (NNW) 2,856 ? -12.6°
